Regional Weather Roundup
Issued by NWS

Home | Current Version | Previous Version | Graphics & Text | Print | Product List | Glossary On
Versions: 1 2 3 4 5 6 7 8 9 10 11 12 13 14 15 16 17 18 19 20 21 22 23 24 25 26 27 28 29 30 31 32 33 34 35 36 37 38 39 40 41 42 43 44 45 46 47 48 49 50
000
ASUS45 KBOU 291307
RWRCO

WEATHER ROUNDUP FOR COLORADO
NATIONAL WEATHER SERVICE DENVER/BOULDER CO
700 AM MDT MON SEP 29 2014

NOTE: "FAIR" INDICATES FEW OR NO CLOUDS BELOW 12000 FEET WITH NO
SIGNIFICANT WEATHER AND/OR OBSTRUCTIONS TO VISIBILITY.

COZ001>005-013-030-031-291400-
...NORTHWEST COLORADO...

CITY           SKY/WX    TMP DP  RH WIND       PRES   REMARKS
CRAIG          CLEAR     42  38  85 CALM      30.06F
HAYDEN         CLEAR     43  37  81 E8        30.08S
MEEKER         CLEAR     41  38  89 NE3       30.07S
MOUNT WERNER   NOT AVBL
STEAMBOAT SPGS NOT AVBL
WALDEN         MOCLDY    37  36  93 SE3       30.14F
$$

COZ006>008-011-291400-
...WEST CENTRAL VALLEYS...

CITY           SKY/WX    TMP DP  RH WIND       PRES   REMARKS
GRAND JUNCTION PTCLDY    48  47  96 SE6       30.02S
MONTROSE       PTCLDY    47  46  97 SE5       30.08S
EAGLE          MOCLDY    46  45  93 CALM      30.13F
RIFLE          CLEAR     44  42  93 E5        30.06F
DELTA          RAIN      48  47  96 CALM      30.06R
NUCLA          PTCLDY    46  43  87 E9        30.11S
$$

COZ017>023-064>068-291400-
...SOUTHWEST COLORADO...

CITY           SKY/WX    TMP DP  RH WIND       PRES   REMARKS
DURANGO        CLOUDY    50  49  96 NE5       30.13S
CORTEZ         MOCLDY    44  43  96 NW3       30.08F
PAGOSA SPRINGS NOT AVBL
TELLURIDE      DRIZZLE  N/A N/A N/A CALM      30.19S
WOLF CREEK PAS SNOW      32  32 100 SW12G23   30.34S VSB 1/4 WCI  23
$$

COZ009-010-012-014-032>034-037-058>063-291400-
...CENTRAL COLORADO...

CITY           SKY/WX    TMP DP  RH WIND       PRES   REMARKS
ASPEN          CLOUDY    41  38  89 SW6       30.14S
BUENA VISTA    CLOUDY    44  42  93 NE3       30.17R
COPPER MTN     PTCLDY    37  32  81 S16       30.32F
BERTHOUD PASS  FAIR      32  30  93 W3        30.37R
COTTONWOOD PAS PTCLDY    45  37  76 S5        30.24S
GUNNISON       MOCLDY    43  37  81 NE5       30.17F
KREMMLING      PTCLDY    39  36  87 CALM      30.16R
LEADVILLE      NOT AVBL
MONARCH PASS   LGT RAIN  34  32  93 SW21      30.43S VSB 1/4 WCI  22
SALIDA         CLOUDY    50  47  87 E5        30.22R
SUNLIGHT       PTCLDY    36  36 100 CALM      30.26F FOG
WILKERSON PASS NOT AVBL
$$

COZ069>075-291400-
...SAN LUIS VALLEY/SANGRE DE CRISTO MOUNTAINS...

CITY           SKY/WX    TMP DP  RH WIND       PRES   REMARKS
ALAMOSA        PTCLDY    46  45  96 CALM      30.17R
LA VETA PASS   NOT AVBL
SAGUACHE       MOCLDY    46  45  93 NE5       30.19F
$$

COZ035-036-038>040-291400-
...NORTHERN COLORADO FRONT RANGE...

CITY           SKY/WX    TMP DP  RH WIND       PRES   REMARKS
DENVER INTL AP CLOUDY    53  50  89 SE3       30.05S
DMNS CITY PARK   N/A     54  50  87 E1        30.06R
AURORA         CLOUDY    51  51 100 S2        30.08R
FRONT RANGE AP CLOUDY    54  52  94 W3        30.07S
ERIE MUNI ARPT NOT AVBL
BOULDER MUN AP CLOUDY    54  54 100 CALM      30.05S
CENTENNIAL     CLOUDY    52  49  89 N6        30.07S
BROOMFIELD     MOCLDY    54  50  87 CALM      30.06F
FORT COLLINS   PTCLDY    50  46  87 S7        30.05R
LONGMONT       CLOUDY    55  53  91 S3        30.06S FOG
$$

COZ041-046-047-076>085-087-088-291400-
...PIKES PEAK/PALMER DIVIDE AND SOUTHERN FOOTHILLS...

CITY           SKY/WX    TMP DP  RH WIND       PRES   REMARKS
COLO. SPRINGS  MOCLDY    54  48  80 CALM      30.07S
A. F. ACADEMY  MOCLDY    51  48  88 NE12      30.08S
ELLICOTT       NOT AVBL
FALCON         MOCLDY    51  48  89 N10       30.10S
FORT CARSON    PTCLDY    53  49  89 NW7       30.05R
LIMON          MOCLDY    49  48  97 NW3       30.06R
MONUMENT HILL  CLOUDY    45  45 100 CALM      30.11S FOG
TRINIDAD       CLEAR     60  50  69 W12       30.05R
$$

COZ042>045-048>051-090-091-291400-
...NORTHEAST COLORADO...

CITY           SKY/WX    TMP DP  RH WIND       PRES   REMARKS
GREELEY ARPT   PTCLDY    54  45  71 N6        30.03S
AKRON          CLOUDY    52  52 100 SW10      30.01S FOG
BURLINGTON     CLEAR     57  52  83 S13       30.01S
WRAY           PTCLDY    59  53  79 SE6       30.01R
STERLING       CLOUDY    59  59 100 S3        29.99S
HOLYOKE        NOT AVBL
FORT MORGAN    MOCLDY    53  50  90 N13       30.01R
$$

COZ086-089-092>099-291400-
...SOUTHEAST COLORADO...

CITY           SKY/WX    TMP DP  RH WIND       PRES   REMARKS
PUEBLO         CLEAR     56  49  77 N9        30.00R
LA JUNTA       PTCLDY    60  52  74 SE5       29.98R
LAMAR          PTCLDY    62  55  77 S7        29.98R
SPRINGFIELD      N/A     56  54  93 S16       30.05R
$$


USA.gov is the U.S. government's official web portal to all federal, state and local government web resources and services.